1507053601.1,13934,12.94,73538.5,-0.17,-1.17,-1.09,0,*65
1507053602.32,13935,12.94,73532.0,-0.21,-0.97,-0.97,0,*6E
1507053603.57,13936,12.94,73536.8,-0.21,-1.05,-1.05,0,*6D
1507053604.78,13937,12.94,73530.3,-0.21,-1.17,-1.09,0,*63
1507053605.97,13938,12.94,73534.3,-0.21,-1.17,-1.17,0,*63
1507053607.16,13939,12.94,73532.0,-0.21,-1.33,-1.29,0,*69
1507053608.36,13940,12.94,73536.5,-0.21,-1.17,-1.17,0,*6C
1507053609.55,13941,12.94,73538.5,-0.21,-1.21,-1.17,0,*68
1507053610.74,13942,12.94,73534.8,-0.21,-1.17,-1.17,0,*6E
1507053611.96,13943,12.94,73526.0,-0.21,-0.97,-0.97,0,*6F
1507053613.21,13944,12.94,73536.3,-0.23,-0.93,-0.93,0,*6A
1507053614.43,13945,12.94,73536.8,-0.21,-0.97,-0.97,0,*69
1507053615.68,13946,12.94,73538.0,-0.21,-1.05,-1.05,0,*6A
1507053616.87,13947,12.94,73532.8,-0.21,-1.17,-1.17,0,*6B
1507053618.08,13948,12.94,73526.0,-0.23,-1.25,-1.21,0,*62
1507053619.29,13949,12.94,73518.8,-0.23,-1.25,-1.33,0,*60
1507053620.48,13950,12.94,73510.5,-0.25,-1.33,-1.25,0,*6E
1507053621.75,13951,12.94,73520.0,-0.23,-1.13,-1.09,0,*65
1507053623.01,13952,12.94,73520.3,-0.23,-1.01,-1.01,0,*6D
1507053624.23,13953,12.94,73520.8,-0.21,-0.97,-0.97,0,*6E
1507053625.44,13954,12.94,73530.3,-0.21,-0.89,-0.81,0,*61
1507053626.66,13955,12.94,73530.0,-0.21,-0.97,-0.93,0,*6C
1507053627.91,13956,12.94,73526.3,-0.23,-0.97,-0.93,0,*6D
1507053629.16,13957,12.94,73538.3,-0.23,-0.93,-0.93,0,*68
1507053630.39,13958,12.94,73532.0,-0.23,-0.81,-0.85,0,*63
1507053631.61,13959,12.94,73536.3,-0.21,-0.89,-0.89,0,*64
1507053632.83,13960,12.94,73542.0,-0.21,-0.93,-0.93,0,*6E
1507053634.05,13961,12.94,73542.5,-0.17,-1.29,-1.21,0,*62
1507053635.25,13962,12.94,73538.5,-0.21,-1.21,-1.21,0,*6C
1507053636.49,13963,12.94,73538.3,-0.17,-1.09,-1.17,0,*67
1507053637.73,13964,12.94,73538.3,-0.21,-1.05,-1.05,0,*6A
1507053638.95,13965,12.94,73544.3,-0.21,-1.17,-1.05,0,*68
1507053640.19,13966,12.94,73546.0,-0.21,-1.05,-1.05,0,*68
1507053641.44,13967,12.94,73544.3,-0.21,-1.05,-1.05,0,*69
1507053642.66,13968,12.94,73546.5,-0.21,-0.97,-0.97,0,*66
1507053643.9,13969,12.94,73540.5,-0.21,-1.09,-1.05,0,*6B
1507053645.09,13970,12.94,73546.8,-0.21,-1.21,-1.17,0,*6A
1507053646.3,13971,12.94,73544.5,-0.21,-1.09,-1.17,0,*61
1507053647.51,13972,12.94,73542.0,-0.21,-1.17,-1.09,0,*62
1507053648.7,13973,13.0,73548.0,-0.21,-1.33,-1.17,0,*6A
1507053649.89,13974,12.94,73548.5,-0.21,-1.17,-1.17,0,*6B
1507053651.13,13975,12.94,73552.5,-0.21,-1.09,-1.05,0,*66
1507053652.32,13976,12.94,73554.3,-0.21,-1.21,-1.17,0,*6C
1507053653.51,13977,12.94,73554.5,-0.21,-1.29,-1.29,0,*68
1507053654.7,13978,12.94,73550.3,-0.21,-1.21,-1.21,0,*67
1507053655.89,13979,13.0,73550.3,-0.21,-1.21,-1.21,0,*66
1507053657.16,13980,12.94,73550.0,-0.23,-1.01,-1.01,0,*62
1507053658.4,13981,12.94,73548.3,-0.25,-1.01,-1.01,0,*65
1507053659.66,13982,12.94,73548.0,-0.23,-1.01,-1.09,0,*68
1507053660.9,13983,13.0,73550.0,-0.23,-1.13,-1.21,0,*60
1507053662.12,13984,12.94,73544.8,-0.23,-1.21,-1.21,0,*66
1507053663.34,13985,12.94,73548.3,-0.25,-1.33,-1.43,0,*66
1507053664.55,13986,12.94,73542.0,-0.23,-1.33,-1.33,0,*64
1507053665.77,13987,12.94,73540.3,-0.23,-1.21,-1.21,0,*65
1507053666.96,13988,12.94,73542.5,-0.25,-1.33,-1.25,0,*6B
1507053668.17,13989,12.94,73544.3,-0.23,-1.25,-1.33,0,*6C
1507053669.39,13990,12.94,73546.3,-0.23,-1.21,-1.21,0,*63
1507053670.59,13991,12.94,73538.8,-0.25,-1.21,-1.21,0,*64
1507053671.85,13992,12.94,73538.5,-0.23,-1.13,-1.09,0,*6A
1507053673.09,13993,12.94,73546.0,-0.23,-1.33,-1.35,0,*66
1507053674.34,13994,12.94,73536.8,-0.25,-1.47,-1.43,0,*65
1507053675.61,13995,12.94,73538.3,-0.23,-1.43,-1.43,0,*66
1507053676.84,13996,12.94,73538.0,-0.23,-1.21,-1.13,0,*64
1507053678.08,13997,12.94,73538.5,-0.25,-1.01,-1.01,0,*62
1507053679.33,13998,13.0,73544.5,-0.23,-0.97,-0.93,0,*6F
1507053680.59,13999,12.94,73546.0,-0.23,-0.97,-0.97,0,*6A
1507053681.82,14000,12.94,73542.3,-0.25,-1.01,-0.97,0,*5C
1507053683.04,14001,12.94,73542.8,-0.23,-1.25,-1.21,0,*61
1507053684.25,14002,12.94,73540.3,-0.23,-1.21,-1.21,0,*66
1507053685.49,14003,12.94,73536.3,-0.25,-1.13,-1.13,0,*61
1507053686.75,14004,13.0,73536.3,-0.23,-1.01,-1.01,0,*60
1507053688.01,14005,12.94,73540.8,-0.23,-0.97,-0.93,0,*65
1507053689.25,14006,12.94,73548.8,-0.23,-0.85,-0.93,0,*65
1507053690.5,14007,12.94,73560.5,-0.23,-0.93,-0.93,0,*63
1507053691.74,14008,12.94,73560.0,-0.25,-0.97,-1.01,0,*54
1507053693.0,14009,12.94,73558.3,-0.23,-1.09,-1.09,0,*6D
1507053694.25,14010,12.94,73548.8,-0.23,-1.13,-1.13,0,*65
1507053695.47,14011,12.94,73550.8,-0.23,-1.21,-1.21,0,*64
1507053696.71,14012,12.94,73514.3,-0.25,-1.09,-1.13,0,*6A
1507053697.96,14013,12.94,73534.8,-0.23,-1.01,-0.97,0,*58
1507053699.21,14014,13.0,73542.5,-0.23,-0.93,-0.93,0,*61
1507053700.39,14015,12.94,73520.3,-0.21,-0.77,-0.77,0,*62
1507053701.57,14016,12.94,73540.5,-0.21,-0.81,-0.77,0,*68
1507053702.75,14017,12.94,73544.0,-0.21,-0.81,-0.81,0,*60
1507053703.93,14018,12.94,73550.8,-0.21,-0.77,-0.77,0,*6F
1507053705.14,14019,12.94,73540.8,-0.17,-0.77,-0.81,0,*62
1507053706.36,14020,12.94,73528.5,-0.17,-0.81,-0.81,0,*61
1507053707.54,14021,12.94,73540.8,-0.21,-0.81,-0.81,0,*65
1507053708.8,14022,12.94,73550.5,-0.17,-0.89,-0.93,0,*68
1507053710.01,14023,12.94,73550.0,-0.17,-0.77,-0.81,0,*6B
1507053711.23,14024,12.94,73550.5,-0.17,-0.81,-0.77,0,*6C
1507053712.45,14025,13.0,73552.0,-0.17,-0.77,-0.77,0,*64
1507053713.7,14026,12.94,73552.8,-0.17,-0.89,-0.89,0,*67
1507053714.96,14027,12.94,73560.0,-0.17,-0.97,-0.97,0,*66
1507053716.23,14028,12.94,73558.0,-0.17,-1.09,-1.09,0,*69
1507053717.47,14029,12.94,73558.3,-0.21,-1.43,-1.39,0,*60
1507053718.69,14030,12.94,73544.5,-0.17,-1.21,-1.17,0,*65
1507053719.95,14031,12.94,73546.8,-0.17,-0.97,-0.97,0,*61
1507053721.19,14032,12.94,73546.8,-0.17,-0.81,-0.89,0,*6A
1507053722.41,14033,12.94,73552.0,-0.17,-0.81,-0.69,0,*65
1507053723.59,14034,12.94,73548.8,-0.21,-0.69,-0.69,0,*61
1507053724.82,14035,12.94,73544.3,-0.17,-0.89,-0.81,0,*6D
1507053726.06,14036,12.94,73550.5,-0.17,-0.89,-0.81,0,*6E
1507053727.32,14037,13.0,73558.5,-0.17,-0.93,-0.89,0,*6C
1507053728.57,14038,12.94,73548.0,-0.17,-0.93,-0.93,0,*68
1507053729.81,14039,12.94,73546.0,-0.17,-1.09,-1.17,0,*66
1507053731.08,14040,13.0,73550.5,-0.17,-1.05,-0.97,0,*5D
1507053732.31,14041,13.0,73548.0,-0.17,-1.17,-1.17,0,*66
1507053733.54,14042,12.94,73546.3,-0.17,-1.21,-1.21,0,*65
1507053734.76,14043,12.94,73544.3,-0.17,-1.29,-1.29,0,*64
1507053736.03,14044,13.0,73546.5,-0.17,-1.05,-0.97,0,*59
1507053737.26,14045,12.94,73546.0,-0.21,-0.97,-1.05,0,*5D
1507053738.45,14046,12.94,73550.5,-0.21,-1.21,-1.17,0,*61
1507053739.68,14047,12.94,73550.8,-0.17,-1.33,-1.29,0,*6B
1507053740.9,14048,12.94,73552.8,-0.17,-1.33,-1.29,0,*64
1507053742.09,14049,12.94,73554.8,-0.21,-1.33,-1.29,0,*60
1507053743.31,14050,12.94,73554.0,-0.17,-1.21,-1.29,0,*6E
1507053744.51,14051,12.94,73548.5,-0.21,-1.21,-1.21,0,*62
1507053745.76,14052,12.94,73556.0,-0.17,-1.17,-1.09,0,*6B
1507053747.02,14053,12.94,73550.0,-0.17,-1.09,-1.09,0,*65
1507053748.26,14054,13.0,73550.8,-0.21,-1.09,-1.05,0,*6B
1507053749.49,14055,12.94,73550.0,-0.21,-1.05,-0.97,0,*5C
1507053750.75,14056,12.94,73540.8,-0.17,-0.97,-0.93,0,*64
1507053751.98,14057,13.0,73540.3,-0.21,-1.05,-0.97,0,*5E
1507053753.22,14058,12.94,73548.0,-0.21,-0.97,-1.05,0,*51
1507053754.44,14059,12.94,73548.8,-0.21,-0.97,-0.93,0,*6E
1507053755.7,14060,12.94,73546.5,-0.17,-0.93,-0.93,0,*65
1507053756.95,14061,12.94,73554.3,-0.17,-0.93,-0.89,0,*6F
1507053758.17,14062,12.94,73546.8,-0.21,-0.93,-0.93,0,*62
1507053759.44,14063,12.94,73550.3,-0.17,-1.05,-0.97,0,*5C
1507053760.66,14064,13.0,73550.8,-0.21,-0.97,-0.97,0,*64
1507053761.93,14065,13.0,73548.5,-0.17,-0.97,-1.05,0,*5A
1507053763.17,14066,12.94,73544.0,-0.21,-1.05,-0.97,0,*5C
1507053764.4,14067,12.94,73548.0,-0.21,-1.05,-0.97,0,*5D
1507053765.68,14068,12.94,73544.3,-0.17,-1.05,-1.05,0,*6D
1507053766.89,14069,12.94,73548.5,-0.21,-1.09,-1.17,0,*66
1507053768.16,14070,12.94,73550.0,-0.17,-1.05,-1.05,0,*64
1507053769.43,14071,12.94,73554.5,-0.17,-0.97,-1.05,0,*5F
1507053770.7,14072,12.94,73554.5,-0.17,-1.05,-0.97,0,*5C
1507053771.96,14073,13.0,73556.8,-0.17,-0.97,-0.97,0,*67
1507053773.23,14074,12.94,73556.5,-0.17,-1.05,-0.97,0,*5A
1507053774.45,14075,12.94,73562.0,-0.21,-0.97,-0.97,0,*64
1507053775.71,14076,12.94,73564.3,-0.17,-0.97,-0.97,0,*62
1507053776.98,14077,12.94,73560.5,-0.17,-1.05,-0.97,0,*59
1507053778.21,14078,12.94,73558.5,-0.17,-1.17,-1.17,0,*6C
1507053779.44,14079,13.0,73562.3,-0.21,-1.05,-1.09,0,*64
1507053780.68,14080,13.0,73564.3,-0.21,-1.05,-0.97,0,*54
1507053781.95,14081,12.94,73556.3,-0.17,-1.09,-1.05,0,*66
1507053783.21,14082,13.0,73560.8,-0.17,-0.97,-0.97,0,*69
1507053784.43,14083,13.0,73564.5,-0.21,-0.97,-0.97,0,*6D
1507053785.69,14084,13.0,73552.5,-0.17,-0.97,-0.97,0,*6F
1507053786.93,14085,13.0,73564.8,-0.21,-1.05,-0.97,0,*51
1507053788.19,14086,12.94,73554.5,-0.17,-1.05,-0.97,0,*57
1507053789.46,14087,12.94,73552.8,-0.17,-1.05,-0.97,0,*56
1507053790.72,14088,13.0,73556.0,-0.17,-0.97,-0.97,0,*63
1507053791.99,14089,12.94,73558.3,-0.17,-0.97,-1.05,0,*58
1507053793.25,14090,12.94,73554.8,-0.17,-0.97,-0.97,0,*6A
1507053794.52,14091,12.94,73554.3,-0.17,-1.05,-0.97,0,*51
1507053795.76,14092,12.94,73554.5,-0.21,-1.05,-1.09,0,*61
1507053797.03,14093,12.94,73546.8,-0.17,-1.09,-1.05,0,*65
1507053798.27,14094,12.94,73548.5,-0.21,-1.05,-1.05,0,*6B
1507053799.53,14095,12.94,73552.8,-0.17,-0.97,-0.97,0,*6F
1507053800.79,14096,13.0,73556.3,-0.17,-0.97,-0.97,0,*6C
1507053802.02,14097,13.0,73556.3,-0.17,-1.21,-1.21,0,*6D
1507053803.29,14098,12.94,73554.5,-0.17,-1.05,-1.05,0,*62
1507053804.49,14099,12.94,73554.5,-0.21,-1.21,-1.21,0,*66
1507053805.74,14100,13.0,73548.5,-0.17,-1.39,-1.33,0,*68
1507053806.96,14101,12.94,73528.3,-0.17,-1.29,-1.17,0,*6E
1507053808.2,14102,13.0,73514.8,-0.21,-1.05,-1.05,0,*65
1507053809.42,14103,13.0,73530.5,-0.21,-0.89,-0.93,0,*6F
1507053810.64,14104,12.94,73530.0,-0.17,-0.77,-0.77,0,*66
1507053811.86,14105,12.94,73530.5,-0.17,-0.81,-0.81,0,*67
1507053813.07,14106,12.94,73544.3,-0.17,-0.77,-0.77,0,*64
1507053814.29,14107,13.0,73550.5,-0.21,-0.93,-0.93,0,*60
1507053815.51,14108,12.94,73544.8,-0.21,-0.89,-0.93,0,*64
1507053816.77,14109,13.0,73552.3,-0.17,-0.93,-0.93,0,*6B
1507053818.03,14110,13.0,73558.8,-0.17,-0.97,-0.93,0,*67
1507053819.25,14111,13.0,73556.5,-0.17,-1.21,-1.21,0,*62
1507053820.45,14112,13.0,73546.5,-0.21,-1.17,-1.17,0,*64
1507053821.67,14113,13.0,73532.5,-0.17,-1.17,-1.17,0,*60
1507053822.93,14114,13.0,73540.0,-0.17,-0.89,-0.93,0,*6C
1507053824.12,14115,13.0,73538.0,-0.15,-0.77,-0.73,0,*60
1507053825.33,14116,12.94,73538.0,-0.17,-0.81,-0.81,0,*65
1507053826.59,14117,12.94,73540.3,-0.17,-0.93,-0.93,0,*64
1507053827.84,14118,13.0,73552.0,-0.17,-0.93,-0.97,0,*6F
1507053829.11,14119,13.0,73552.5,-0.17,-1.05,-0.97,0,*50
1507053830.34,14120,12.94,73542.5,-0.21,-0.97,-1.05,0,*5F
1507053831.6,14121,13.0,73542.3,-0.17,-0.97,-0.97,0,*61
1507053832.86,14122,13.0,73568.5,-0.17,-0.93,-0.89,0,*69
1507053834.13,14123,13.0,73554.5,-0.17,-0.97,-1.05,0,*59
1507053835.39,14124,13.0,73550.3,-0.17,-1.09,-1.09,0,*64
1507053836.66,14125,13.0,73520.8,-0.17,-1.09,-1.05,0,*69
1507053837.92,14126,13.0,73518.8,-0.17,-0.97,-0.97,0,*66
1507053839.18,14127,12.94,73542.3,-0.17,-0.97,-0.93,0,*63
1507053840.42,14128,12.94,73550.0,-0.17,-0.81,-0.89,0,*60
1507053841.65,14129,12.94,73546.3,-0.15,-0.85,-0.89,0,*67
1507053842.91,14130,13.0,73534.3,-0.17,-1.09,-1.09,0,*61
1507053844.17,14131,12.94,73548.0,-0.17,-0.97,-0.93,0,*64
1507053845.41,14132,12.94,73546.3,-0.17,-0.81,-0.89,0,*6B
1507053846.64,14133,13.0,73548.3,-0.17,-0.93,-0.81,0,*61
1507053847.88,14134,13.0,73558.3,-0.17,-0.89,-0.81,0,*6D
1507053849.14,14135,13.0,73556.0,-0.17,-0.93,-0.89,0,*6F
1507053850.36,14136,12.94,73552.5,-0.17,-1.17,-1.17,0,*67
1507053851.63,14137,12.94,73540.5,-0.17,-1.09,-1.09,0,*66
1507053852.9,14138,13.0,73544.8,-0.17,-1.09,-1.09,0,*69
1507053854.12,14139,12.94,73542.0,-0.15,-0.93,-0.93,0,*6A
1507053855.39,14140,12.94,73542.5,-0.17,-0.97,-1.05,0,*5C
1507053856.65,14141,13.0,73550.3,-0.17,-0.97,-0.97,0,*67
1507053857.91,14142,13.0,73534.5,-0.17,-0.97,-0.97,0,*64
1507053859.12,14143,13.0,73544.5,-0.17,-0.77,-0.81,0,*6C
1507053860.35,14144,13.0,73542.8,-0.15,-0.85,-0.85,0,*60
1507053861.58,14145,12.94,73542.0,-0.15,-1.01,-0.93,0,*5B
1507053862.84,14146,12.94,73544.8,-0.17,-0.89,-0.89,0,*60
1507053864.07,14147,13.0,73554.0,-0.15,-0.85,-0.85,0,*63
1507053865.3,14148,13.0,73556.0,-0.15,-0.85,-0.85,0,*6C
1507053866.53,14149,13.0,73558.8,-0.13,-0.77,-0.85,0,*66
1507053867.71,14150,13.0,73552.5,-0.15,-0.77,-0.77,0,*65
1507053868.94,14151,13.0,73556.3,-0.15,-0.85,-0.85,0,*64
1507053870.17,14152,13.0,73552.8,-0.15,-0.89,-0.89,0,*67
1507053871.4,14153,12.94,73562.3,-0.15,-0.89,-0.89,0,*66
1507053872.62,14154,13.0,73550.5,-0.15,-0.89,-0.93,0,*6A
1507053873.86,14155,12.94,73542.0,-0.15,-1.01,-1.01,0,*60
1507053875.09,14156,13.0,73548.3,-0.15,-0.93,-1.01,0,*59
1507053876.35,14157,13.0,73550.5,-0.13,-1.01,-0.93,0,*5E
1507053877.59,14158,13.0,73542.5,-0.15,-1.01,-1.01,0,*6D
1507053878.82,14159,13.0,73546.3,-0.15,-0.93,-0.89,0,*67
1507053880.05,14160,12.94,73542.3,-0.13,-0.77,-0.85,0,*6D
1507053881.3,14161,13.0,73548.8,-0.13,-0.85,-0.85,0,*61
1507053882.54,14162,13.0,73552.0,-0.13,-0.85,-0.77,0,*6F
1507053883.79,14163,13.0,73552.8,-0.13,-0.89,-0.89,0,*63
1507053885.05,14164,13.0,73554.0,-0.13,-0.89,-0.89,0,*64
1507053886.3,14165,13.0,73560.5,-0.13,-0.93,-0.93,0,*65
1507053887.52,14166,13.0,73552.0,-0.15,-0.93,-0.93,0,*60
1507053888.78,14167,13.0,73558.5,-0.13,-0.89,-0.89,0,*67
1507053890.03,14168,13.0,73556.5,-0.13,-0.93,-0.89,0,*63
1507053891.28,14169,12.94,73552.5,-0.13,-0.93,-0.89,0,*62
1507053892.51,14170,13.0,73558.0,-0.15,-0.93,-0.85,0,*60
1507053893.73,14171,13.0,73552.0,-0.15,-0.85,-0.89,0,*6A
1507053894.99,14172,13.0,73558.3,-0.13,-1.01,-0.89,0,*52
1507053896.22,14173,13.0,73562.3,-0.15,-0.93,-0.85,0,*63
1507053897.49,14174,13.0,73564.3,-0.13,-1.01,-1.01,0,*65
1507053898.74,14175,13.0,73564.0,-0.13,-0.93,-0.93,0,*64
1507053899.98,14176,13.0,73570.0,-0.15,-1.01,-1.01,0,*61
1507053901.2,14177,13.0,73556.8,-0.13,-1.17,-1.25,0,*67
1507053902.39,14178,13.0,73562.3,-0.15,-1.25,-1.29,0,*63
1507053903.58,14179,13.0,73558.3,-0.15,-1.25,-1.29,0,*62
1507053904.8,14180,13.0,73544.8,-0.13,-1.29,-1.29,0,*6E
1507053906.05,14181,13.0,73548.5,-0.17,-1.39,-1.51,0,*65
1507053907.27,14182,13.0,73552.3,-0.17,-1.55,-1.51,0,*6C
1507053908.52,14183,13.0,73548.3,-0.15,-1.39,-1.39,0,*6B
1507053909.74,14184,12.94,73550.8,-0.17,-1.51,-1.51,0,*6E
1507053910.91,14185,13.0,73552.8,-0.21,-1.51,-1.55,0,*6E
1507053912.14,14186,12.94,73548.0,-0.17,-1.33,-1.29,0,*67
1507053913.33,14187,13.0,73546.3,-0.21,-1.29,-1.29,0,*68
1507053914.52,14188,13.0,73554.0,-0.21,-1.21,-1.17,0,*62
1507053915.76,14189,13.0,73550.3,-0.21,-1.43,-1.43,0,*66
1507053917.0,14190,13.0,73538.0,-0.21,-1.43,-1.39,0,*63
1507053918.23,14191,13.0,73538.3,-0.21,-1.05,-1.09,0,*63
1507053919.46,14192,13.0,73546.0,-0.21,-0.89,-0.89,0,*6C
1507053920.68,14193,13.0,73556.3,-0.21,-0.89,-0.89,0,*6D
1507053921.89,14194,13.0,73550.0,-0.21,-0.89,-0.81,0,*62
1507053923.11,14195,13.0,73548.5,-0.21,-0.89,-0.89,0,*6B
1507053924.36,14196,12.94,73548.5,-0.17,-0.93,-0.93,0,*6D
1507053925.58,14197,12.94,73544.3,-0.17,-0.81,-0.81,0,*6C
1507053926.83,14198,13.0,73560.3,-0.17,-0.93,-0.93,0,*63
1507053928.09,14199,12.94,73560.3,-0.17,-0.93,-0.93,0,*62
1507053929.31,14200,13.0,73564.8,-0.17,-1.21,-1.21,0,*61
1507053930.54,14201,13.0,73572.0,-0.17,-1.33,-1.33,0,*60
1507053931.77,14202,13.0,73576.0,-0.21,-1.09,-1.09,0,*66
1507053932.98,14203,13.0,73556.5,-0.21,-1.29,-1.39,0,*66
1507053934.21,14204,13.0,73560.0,-0.17,-1.21,-1.21,0,*65
1507053935.48,14205,13.0,73562.3,-0.17,-1.05,-0.97,0,*5E
1507053936.74,14206,13.0,73552.0,-0.17,-0.97,-0.97,0,*67
1507053937.96,14207,13.0,73556.0,-0.21,-0.93,-0.93,0,*63
1507053939.18,14208,13.0,73562.8,-0.21,-0.93,-0.93,0,*6C
1507053940.39,14209,13.0,73560.5,-0.21,-1.09,-1.17,0,*62
1507053941.62,14210,13.0,73562.8,-0.17,-1.29,-1.21,0,*68
1507053942.84,14211,13.0,73562.0,-0.17,-1.29,-1.21,0,*69
1507053944.07,14212,13.0,73556.3,-0.21,-1.05,-0.97,0,*5D
1507053945.32,14213,13.0,73560.0,-0.17,-1.17,-1.09,0,*6C
1507053946.52,14214,13.0,73552.8,-0.21,-1.17,-1.17,0,*61
1507053947.75,14215,13.0,73564.8,-0.21,-1.05,-0.97,0,*5A
1507053949.01,14216,13.0,73560.5,-0.17,-0.97,-0.97,0,*66
1507053950.2,14217,13.0,73558.5,-0.21,-1.29,-1.33,0,*69
1507053951.47,14218,13.0,73562.0,-0.17,-1.39,-1.39,0,*68
1507053952.7,14219,13.0,73556.8,-0.17,-1.33,-1.29,0,*62
1507053953.94,14220,13.0,73556.8,-0.21,-1.39,-1.39,0,*66
1507053955.16,14221,13.0,73548.0,-0.17,-1.33,-1.33,0,*62
1507053956.38,14222,13.0,73548.5,-0.23,-1.67,-1.67,0,*66
1507053957.6,14223,13.0,73552.3,-0.25,-1.55,-1.47,0,*62
1507053958.83,14224,13.0,73562.0,-0.23,-1.25,-1.13,0,*65
1507053960.09,14225,13.0,73558.0,-0.23,-1.01,-1.01,0,*61
1507053961.35,14226,13.0,73554.0,-0.23,-1.01,-1.09,0,*6A
1507053962.61,14227,13.0,73552.3,-0.23,-1.09,-1.01,0,*6B
1507053963.82,14228,13.0,73552.8,-0.23,-1.25,-1.21,0,*68
1507053965.08,14229,13.0,73552.3,-0.23,-1.01,-1.01,0,*6D
1507053966.34,14230,13.0,73550.5,-0.23,-0.97,-0.85,0,*66
1507053967.56,14231,13.0,73558.5,-0.21,-0.93,-0.89,0,*6D
1507053968.73,14232,13.0,73556.3,-0.21,-0.57,-0.53,0,*61
1507053969.96,14233,13.0,73560.5,-0.21,-0.89,-0.93,0,*6F
1507053971.21,14234,13.0,73566.0,-0.23,-0.97,-0.97,0,*61
1507053972.47,14235,13.0,73564.8,-0.17,-0.97,-0.93,0,*63
1507053973.7,14236,13.0,73566.3,-0.21,-0.97,-1.09,0,*57
1507053974.93,14237,13.0,73564.5,-0.21,-1.09,-1.09,0,*60
1507053976.16,14238,13.0,73566.8,-0.21,-1.09,-1.09,0,*6F
1507053977.38,14239,13.0,73564.8,-0.17,-1.29,-1.33,0,*60
1507053978.6,14240,13.0,73562.8,-0.21,-1.33,-1.43,0,*67
1507053979.83,14241,13.0,73552.3,-0.21,-1.09,-1.09,0,*61
1507053981.06,14242,13.0,73562.8,-0.21,-0.97,-0.97,0,*62
1507053982.26,14243,13.0,73552.0,-0.21,-0.81,-0.89,0,*6B
1507053983.44,14244,13.0,73552.0,-0.21,-0.81,-0.77,0,*6D
1507053984.7,14245,13.0,73578.5,-0.17,-0.89,-0.89,0,*60
1507053985.92,14246,13.0,73572.3,-0.21,-0.93,-0.93,0,*66
1507053987.14,14247,13.0,73550.0,-0.21,-0.97,-0.93,0,*63
1507053988.38,14248,13.0,73544.8,-0.21,-1.05,-0.97,0,*52
1507053989.6,14249,13.0,73550.0,-0.21,-0.89,-0.89,0,*69
1507053990.86,14250,13.0,73558.3,-0.17,-0.93,-0.93,0,*64
1507053992.08,14251,13.0,73562.8,-0.21,-0.89,-0.89,0,*60
1507053993.26,14252,13.0,73572.5,-0.21,-0.77,-0.69,0,*6C
1507053994.52,14253,13.0,73570.5,-0.17,-1.05,-0.97,0,*5D
1507053995.8,14254,13.0,73570.5,-0.17,-1.05,-1.05,0,*60
1507053997.07,14255,13.0,73574.8,-0.17,-1.05,-0.97,0,*5B
1507053998.29,14256,13.0,73584.3,-0.17,-1.17,-1.17,0,*62
1507053999.49,14257,13.0,73566.0,-0.21,-1.21,-1.21,0,*66
1507054000.68,14258,13.0,73540.8,-0.21,-1.17,-1.21,0,*6C
1507054001.91,14259,13.0,73530.0,-0.21,-0.97,-0.97,0,*68
1507054003.15,14260,13.0,73540.8,-0.17,-0.81,-0.89,0,*6F
1507054004.33,14261,13.0,73554.0,-0.21,-0.81,-0.77,0,*6A
1507054005.54,14262,13.0,73560.3,-0.17,-0.57,-0.57,0,*65
1507054006.74,14263,13.0,73562.0,-0.21,-0.89,-0.81,0,*69
1507054007.96,14264,13.0,73564.3,-0.17,-0.77,-0.81,0,*6A
1507054009.17,14265,13.0,73564.3,-0.17,-0.81,-0.77,0,*6B
1507054010.43,14266,13.0,73560.5,-0.17,-0.93,-0.93,0,*61
1507054011.68,14267,13.0,73566.0,-0.17,-0.93,-0.93,0,*60
1507054012.91,14268,13.0,73568.5,-0.15,-0.89,-0.89,0,*6D
1507054014.17,14269,13.0,73562.5,-0.13,-1.01,-0.89,0,*5B
1507054015.39,14270,13.0,73564.5,-0.15,-0.93,-0.93,0,*64
1507054016.62,14271,13.0,73566.8,-0.15,-0.89,-0.89,0,*65
1507054017.85,14272,13.0,73552.3,-0.15,-0.89,-0.89,0,*66
1507054019.08,14273,13.0,73554.8,-0.15,-0.85,-0.85,0,*67
1507054020.27,14274,13.0,73562.5,-0.15,-0.73,-0.77,0,*64
1507054021.45,14275,13.0,73556.0,-0.15,-0.73,-0.65,0,*66
1507054022.66,14276,13.0,73558.5,-0.13,-0.77,-0.77,0,*64
1507054023.85,14277,13.0,73564.3,-0.15,-0.77,-0.77,0,*63
1507054025.06,14278,13.0,73566.3,-0.13,-0.77,-0.73,0,*6E
1507054026.31,14279,13.0,73560.5,-0.13,-0.85,-0.85,0,*6B
1507054027.57,14280,13.0,73566.3,-0.13,-0.89,-0.89,0,*6D
1507054028.82,14281,13.0,73570.0,-0.13,-0.89,-0.85,0,*60
1507054030.03,14282,13.0,73570.5,-0.15,-0.85,-0.73,0,*60
1507054031.22,14283,13.0,73574.8,-0.15,-0.73,-0.73,0,*68
1507054032.43,14284,13.0,73568.0,-0.13,-0.77,-0.77,0,*69
1507054033.65,14285,13.0,73568.5,-0.13,-0.73,-0.73,0,*68
1507054034.9,14286,13.0,73562.0,-0.13,-0.85,-0.85,0,*6B
1507054036.12,14287,13.0,73566.5,-0.13,-0.77,-0.73,0,*6E
1507054037.32,14288,13.0,73574.3,-0.13,-0.65,-0.65,0,*65
1507054038.53,14289,13.0,73570.8,-0.13,-0.65,-0.73,0,*63
1507054039.71,14290,13.0,73570.3,-0.11,-0.69,-0.69,0,*6E
1507054040.89,14291,13.0,73572.0,-0.11,-0.69,-0.69,0,*6F
1507054042.07,14292,13.0,73574.0,-0.11,-0.69,-0.61,0,*64
1507054043.27,14293,13.0,73574.8,-0.11,-0.81,-0.85,0,*69
1507054044.5,14294,13.0,73578.0,-0.11,-0.85,-0.85,0,*6A
1507054045.73,14295,13.0,73572.8,-0.11,-1.09,-1.09,0,*6B
1507054046.96,14296,13.0,73574.3,-0.11,-0.89,-0.97,0,*67
1507054048.22,14297,13.0,73562.8,-0.13,-1.01,-0.93,0,*51
1507054049.47,14298,13.0,73554.5,-0.13,-0.93,-0.89,0,*6F
1507054050.68,14299,13.0,73548.0,-0.13,-0.77,-0.77,0,*65
1507054051.89,14300,13.0,73560.3,-0.13,-0.73,-0.77,0,*60
1507054053.08,14301,13.0,73570.8,-0.11,-0.73,-0.73,0,*67
1507054054.25,14302,13.0,73568.3,-0.11,-0.61,-0.57,0,*61
1507054055.43,14303,13.0,73566.3,-0.11,-0.69,-0.61,0,*6D
1507054056.61,14304,13.0,73570.0,-0.11,-0.69,-0.69,0,*62
1507054057.79,14305,13.0,73570.3,-0.11,-0.73,-0.61,0,*60
1507054058.99,14306,13.0,73572.0,-0.09,-0.69,-0.61,0,*51
1507054060.17,14307,13.0,73572.3,-0.11,-0.69,-0.69,0,*61
1507054061.4,14308,13.0,73574.5,-0.09,-0.85,-0.81,0,*53
1507054062.64,14309,13.0,73576.3,-0.09,-0.85,-0.85,0,*56
1507054063.89,14310,13.0,73572.5,-0.09,-0.97,-0.89,0,*51
1507054065.12,14311,13.0,73580.0,-0.11,-0.85,-0.85,0,*66
1507054066.35,14312,13.0,73578.0,-0.11,-0.89,-0.97,0,*6A
1507054067.57,14313,13.0,73578.5,-0.11,-0.89,-0.89,0,*64
1507054068.8,14314,13.0,73576.0,-0.11,-0.89,-0.89,0,*63
1507054070.02,14315,13.0,73574.8,-0.11,-0.97,-0.89,0,*6D
1507054071.25,14316,13.0,73576.8,-0.11,-0.89,-0.89,0,*61
1507054072.45,14317,13.0,73578.8,-0.11,-0.85,-0.81,0,*64
1507054073.68,14318,13.0,73574.5,-0.11,-0.85,-0.85,0,*6F
1507054074.9,14319,13.0,73576.5,-0.11,-0.89,-0.97,0,*61
1507054076.15,14320,13.0,73574.0,-0.09,-0.89,-0.85,0,*51
1507054077.38,14321,13.0,73574.5,-0.11,-0.89,-0.89,0,*65
1507054078.61,14322,13.0,73578.0,-0.11,-0.97,-1.01,0,*58
1507054079.84,14323,13.0,73576.8,-0.11,-0.89,-0.89,0,*67
1507054081.09,14324,13.0,73572.3,-0.13,-0.93,-0.93,0,*62
1507054082.31,14325,13.0,73578.3,-0.11,-0.97,-0.97,0,*61
1507054083.54,14326,13.0,73580.3,-0.11,-0.97,-0.97,0,*62
1507054084.78,14327,13.0,73578.8,-0.11,-1.01,-1.09,0,*6B
1507054086.01,14328,13.0,73572.8,-0.11,-1.01,-1.01,0,*6C
1507054087.27,14329,13.0,73572.3,-0.13,-0.93,-0.93,0,*6F
1507054088.52,14330,13.0,73578.3,-0.13,-0.93,-0.89,0,*6C
1507054089.75,14331,13.0,73566.0,-0.11,-0.97,-0.89,0,*6B
1507054090.97,14332,13.0,73572.3,-0.11,-0.97,-0.89,0,*68
1507054092.2,14333,13.0,73570.3,-0.11,-0.97,-0.97,0,*66
1507054093.43,14334,13.0,73568.8,-0.11,-0.97,-0.97,0,*61
1507054094.7,14335,13.0,73566.0,-0.13,-1.01,-1.01,0,*62
1507054095.93,14336,13.0,73572.0,-0.11,-1.01,-1.01,0,*63
1507054097.2,14337,13.0,73568.5,-0.13,-1.05,-1.05,0,*60
1507054098.47,14338,13.0,73574.0,-0.13,-1.01,-0.93,0,*55
1507054099.73,14339,13.0,73574.5,-0.13,-1.01,-0.93,0,*54
1507054100.99,14340,13.0,73568.5,-0.13,-1.01,-1.01,0,*60
1507054102.24,14341,13.0,73574.3,-0.13,-0.93,-0.93,0,*61
1507054103.49,14342,13.0,73574.3,-0.13,-0.93,-0.93,0,*62
1507054104.76,14343,13.0,73578.0,-0.13,-1.01,-1.01,0,*63
1507054106.02,14344,13.0,73572.0,-0.13,-1.13,-1.13,0,*64
1507054107.25,14345,13.0,73578.0,-0.13,-1.17,-1.17,0,*65
1507054108.52,14346,13.0,73582.3,-0.13,-1.47,-1.39,0,*6F
1507054109.74,14347,13.0,73582.5,-0.13,-1.17,-1.25,0,*66
1507054111.01,14348,13.0,73576.3,-0.13,-1.05,-1.05,0,*68
1507054112.28,14349,13.0,73564.8,-0.13,-1.13,-1.13,0,*69
1507054113.49,14350,13.0,73570.3,-0.15,-1.13,-1.17,0,*63
1507054114.69,14351,13.0,73558.0,-0.15,-1.17,-1.25,0,*67